Location: Brélès
(48.4768°N, 4.7136°W)
Time: 23:01:04
(UTC+00:00)

Daily predictions for brighter satellites

Satellite Brightness Start Highest point End
(mag) Time Altitude Azimuth Time Altitude Azimuth Time Altitude Azimuth
Cosmos 2285 Rocket 4.4 18:14:37 10° NNW 18:20:43 46° ENE 18:26:49 10° SE
PSLV R/B 3.8 18:19:34 10° SSE 18:23:08 53° ENE 18:26:44 10° N
Cosmos 1726 2.7 18:20:09 10° SSE 18:23:28 34° E 18:26:49 10° NNE
Cosmos 2322 Rocket 3.6 18:20:17 10° SE 18:23:34 16° E 18:26:51 10° ENE
CZ-4 R/B 4.4 18:22:25 10° SSE 18:26:31 73° ENE 18:30:38 10° N
Cosmos 841 Rocket 3.5 18:22:21 10° NNW 18:27:34 88° WSW 18:32:42 10° SSE
CZ-2C R/B 4.4 18:23:04 10° N 18:28:08 38° WNW 18:33:15 10° SW
Cosmos 1470 4.4 18:26:21 10° ESE 18:28:24 14° E 18:30:27 10° NE
Cosmos 1980 Rocket 2.2 18:23:21 10° SSW 18:28:59 81° ESE 18:34:38 10° NNE
Cosmos 1378 Rocket 3.7 18:24:48 10° N 18:29:07 53° ENE 18:33:21 10° SSE
CZ-4B R/B 3.4 18:24:17 10° SE 18:29:29 52° ENE 18:34:50 10° N
Timation 2 Rocket 4.0 18:23:59 10° NNW 18:30:30 86° ENE 18:36:41 10° SSE
ARGOS Delta rocket 4.3 18:26:24 10° NNE 18:31:26 44° E 18:36:11 10° SSE
DMSP B5D2-2 4.1 18:27:02 10° NNE 18:32:20 75° ESE 18:37:36 10° S
Meteor 2-14 Rocket 4.4 18:34:13 10° S 18:40:08 60° E 18:46:06 10° NNE
Cosmos 1733 Rocket 3.2 18:37:54 10° S 18:42:21 85° W 18:46:51 10° N
Cosmos 1850 Rocket 4.0 18:37:18 10° SSW 18:42:32 90° ESE 18:47:51 10° NNE
USA 215 3.3 18:39:00 10° NE 18:45:35 87° NNW 18:52:08 10° WSW
Cosmos 2369 4.0 18:40:58 10° SW 18:46:41 73° WNW 18:52:25 10° NNE
Cosmos 2221 Rocket 3.9 18:42:38 10° NNW 18:47:11 76° W 18:51:43 10° S
COBE Rocket 3.8 18:42:47 10° SSE 18:47:35 70° ENE 18:52:18 10° N
Cosmos 2279 Rocket 4.4 18:41:23 10° NNW 18:47:37 71° W 18:53:49 10° S
Cosmos 1844 Rocket 3.5 18:43:39 10° NNW 18:48:44 32° NE 18:52:59 14° ESE
Cosmos 2278 3.7 18:46:46 10° SSW 18:52:25 70° ESE 18:58:04 10° NNE
SL-16 R/B 2.7 18:48:15 10° S 18:53:22 36° ESE 18:58:30 10° NE
Cosmos 1570 Rocket 4.1 18:49:13 10° NNW 18:54:26 59° ENE 18:59:35 10° SE
PAYLOAD B 4.5 18:50:04 10° S 18:55:34 74° WSW 19:01:05 10° NNW
Cosmos 1092 Rocket 4.5 18:51:11 10° SSE 18:56:53 38° E 19:02:34 10° NNE
Resurs 01 Rocket 3.6 19:01:19 12° ENE 19:01:37 12° NE 19:03:13 10° NE
COSMO-SKYMED 1 3.4 18:58:02 10° N 19:02:17 55° WNW 19:06:32 10° SSW
Cosmos 2278 Rocket 4.3 19:01:15 10° N 19:02:49 11° NNE 19:04:24 10° NE
Meteor 2-21 Rocket 4.4 18:56:54 10° S 19:02:51 63° E 19:08:49 10° NNE
SJ-6B 3.8 19:02:07 20° E 19:03:31 25° ENE 19:06:41 10° N
HJ-1C 3.0 19:01:32 10° SSE 19:04:38 82° ENE 19:07:46 10° N
Gbstr 26 Del rocket 4.5 18:57:35 10° WSW 19:05:07 86° SSE 19:12:38 13° ENE
Cosmos 1437 Rocket 2.8 19:02:08 10° S 19:05:44 47° E 19:09:20 10° NNE
H-2A R/B 4.3 19:07:12 13° NE 19:07:12 13° NE 19:08:42 10° NNE
Cosmos 2263 Rocket 3.0 19:02:34 10° NW 19:08:06 53° WSW 19:13:37 10° S
Spot 1 4.1 19:04:41 10° NNE 19:08:54 78° WNW 19:12:58 10° SSW
Meteor 1-24 Rocket 3.7 19:04:57 10° N 19:10:07 51° ENE 19:15:21 10° SSE
ASTEX 1 4.2 19:05:49 10° N 19:10:42 57° W 19:15:35 10° SSW
SL-4 R/B 2.9 19:10:09 10° WNW 19:14:28 51° SSW 19:17:51 17° SE
IRIDIUM 104 4.3 19:10:51 10° S 19:16:04 87° W 19:21:20 10° N
Meteor 2-16 Rocket 4.4 19:10:43 10° S 19:16:47 69° E 19:22:55 10° NNE
Feng Yun 1-1 Rocket 4.1 19:11:57 10° SSE 19:17:24 78° ENE 19:22:49 10° NNW
Cosmos 2084 Rocket 3.2 19:14:10 10° NW 19:17:58 63° NE 19:19:51 29° ESE
Cosmos 1814 Rocket 4.4 19:12:48 10° NNW 19:18:01 65° WSW 19:23:08 10° S
ISS -1.1 19:19:18 10° W 19:21:25 16° SW 19:23:33 10° S
USA 267 3.9 19:15:13 10° SE 19:21:36 54° SW 19:28:02 10° WNW
Okean-O 3.2 19:20:29 26° ESE 19:22:18 38° ENE 19:26:25 10° N
Cosmos 2208 Rocket 4.0 19:17:43 10° NNW 19:23:08 79° ENE 19:28:16 12° SSE
Cosmos 1844 4.0 19:18:06 10° NNW 19:23:27 45° NE 19:26:12 26° ESE
CZ-4 R/B 1.5 19:19:20 10° SSE 19:23:31 83° W 19:27:43 10° NNW
OBJECT-B 1.3 19:24:56 31° NNE 19:24:56 31° NNE 19:26:35 10° N
IGS 5A 3.8 19:24:37 29° ESE 19:26:08 42° ENE 19:30:04 10° N
DNEPR-1 R/B 4.4 19:22:25 10° S 19:26:43 37° ESE 19:30:36 16° NE
Meteor 1-22 Rocket 4.1 19:22:46 10° S 19:28:07 63° E 19:33:43 10° NNE
Cosmos 1300 Rocket 4.1 19:30:15 34° ESE 19:30:39 35° E 19:34:37 10° NNE
Cosmos 1908 Rocket 3.7 19:26:26 10° SSW 19:30:45 75° W 19:35:06 10° N
Cosmos 1428 Rocket 4.4 19:26:14 10° S 19:32:21 67° E 19:38:34 10° NNE
CSL-04 Debris 4.1 19:28:02 15° SSE 19:32:27 62° ENE 19:37:46 10° N
Cosmos 1627 Rocket 4.4 19:29:49 10° S 19:35:50 64° E 19:41:54 10° NNE
Cosmos 2195 Rocket 4.4 19:29:53 10° S 19:36:05 74° E 19:42:24 10° NNE
Cosmos 2360 Rocket 2.6 19:32:42 10° S 19:37:53 38° ESE 19:43:03 10° NE
Cosmos 1782 Rocket 3.4 19:34:37 10° S 19:38:56 73° E 19:43:18 10° NNE
USA 81 4.0 19:33:40 10° N 19:38:56 66° E 19:43:22 15° SSE
Cosmos 1025 Rocket 2.9 19:38:37 10° N 19:42:57 71° E 19:44:51 32° SSE
YAOGAN 1 4.0 19:39:04 10° SSW 19:43:05 38° W 19:47:09 10° NNW
Okean O Rocket 2.8 19:43:03 10° S 19:47:12 42° W 19:51:23 10° NNW
Cosmos 968 Rocket 3.7 19:43:44 10° SSW 19:48:58 73° WNW 19:54:14 10° NNE
Lacrosse 4 Rocket 1.3 19:46:02 10° SSW 19:50:03 60° ESE 19:50:18 59° E
Cosmos 2026 Rocket 3.8 19:46:19 10° S 19:52:22 82° E 19:58:28 10° N
USA 186 1.9 19:55:51 74° SW 19:55:58 75° WSW 19:59:21 10° NNW
ATLAS 2AS CENTAUR R/B 4.3 19:51:43 10° NW 19:57:40 25° N 20:01:35 16° NE
Meteor 2-5 Rocket 4.2 19:52:47 10° NNW 19:58:14 60° W 20:03:39 10° S
CSL-04 Rocket 3.6 19:55:05 25° SSE 19:58:22 88° ENE 20:03:49 10° NNW
BREEZE-M R/B 3.8 19:56:38 10° SW 19:58:02 38° SW 19:58:02 38° SW
Cosmos 1553 Rocket 3.9 19:57:18 10° N 20:03:40 69° ENE 20:06:33 34° SSE
Cosmos 1470 3.5 20:00:09 10° SSW 20:03:54 50° WNW 20:07:39 10° N
Landsat 7 3.7 20:04:06 60° SE 20:04:51 73° ENE 20:09:34 10° N
deb Chang Zheng 4 4.0 20:05:56 44° NNE 20:05:56 44° NNE 20:09:10 10° N
Cosmos 2322 Rocket 2.1 20:01:04 10° SSW 20:06:47 90° ESE 20:12:32 10° NNE
Cosmos 2237 4.2 20:01:53 10° SSW 20:07:36 87° WNW 20:13:21 10° NNE
SPOT 1/Viking Rocket 3.9 20:07:53 45° ENE 20:07:53 45° ENE 20:12:34 10° N
Cosmos 1975 Rocket 3.5 20:03:51 10° NNW 20:08:13 61° W 20:10:19 29° SSW
NOSS 3-4 (A) 4.2 20:03:35 10° NW 20:10:02 46° NE 20:12:04 38° ENE
NOSS 3-4 (C) 4.2 20:03:42 10° NW 20:10:08 46° NE 20:12:10 38° ENE
Cosmos 1980 Rocket 4.5 20:09:16 10° W 20:13:40 23° NW 20:18:05 10° N
Ariane Rocket 4.1 20:16:26 31° NE 20:16:26 31° NE 20:19:55 10° N
NOSS 3-3 (A) 3.8 20:14:52 10° SSW 20:20:03 60° SE 20:20:03 60° SE
NOSS 3-3 (C) 3.8 20:14:58 10° SSW 20:19:58 58° SE 20:19:58 58° SE
Aureole 1 Rocket 4.0 20:17:37 10° S 20:24:56 63° ESE 20:30:42 10° NNE
IRS-1C Rocket 4.4 20:24:43 36° S 20:26:45 63° WSW 20:31:59 10° NNW
USA 281 4.2 20:27:40 28° NE 20:28:03 29° NE 20:33:28 10° N
USA 215 4.0 20:24:15 22° NE 20:28:17 48° NNW 20:34:29 10° W
Cosmos 1844 Rocket 3.3 20:27:23 10° NW 20:32:53 53° WSW 20:34:40 38° SSW
Resurs 01 Rocket 2.6 20:38:52 41° N 20:38:52 41° N 20:41:49 10° NNW
SL-16 R/B 3.3 20:32:00 10° SW 20:37:23 43° NW 20:42:48 10° NNE
Cosmos 2315 Rocket 4.5 20:32:42 10° N 20:37:56 46° NE 20:37:56 46° NE
Cosmos 1943 Rocket 4.2 20:36:14 10° N 20:38:59 15° NNE 20:38:59 15° NNE
Terra 4.1 20:42:42 14° NNE 20:42:42 14° NNE 20:43:37 10° NNE
H-2A R/B 4.0 20:43:40 29° NNW 20:43:40 29° NNW 20:45:40 10° NNW
Cosmos 2278 Rocket 3.3 20:43:29 10° NNW 20:47:32 33° NNE 20:47:32 33° NNE
IRS-1A Rocket 4.4 20:58:18 74° NW 20:58:18 74° NW 21:03:37 10° NNW
Okean-O 4.5 20:58:03 24° WSW 20:58:52 26° W 21:02:36 10° NW
Cosmos 2266 Rocket 4.3 21:11:31 63° N 21:11:31 63° N 21:16:48 10° N
Cosmos 1655 Rocket 4.5 21:13:41 53° N 21:13:41 53° N 21:18:22 10° N
Cosmos 2333 Rocket 4.4 21:18:31 15° NNE 21:18:31 15° NNE 21:19:22 10° NNE
S3M 4.3 21:08:44 10° NNW 21:14:52 61° W 21:14:52 61° W
Cosmos 2360 Rocket 3.3 21:16:32 10° WSW 21:21:51 41° NW 21:27:11 10° NNE
Lacrosse 4 Rocket 4.3 21:25:50 10° W 21:26:39 14° W 21:26:39 14° W
ATLAS 2AS CENTAUR R/B 3.6 21:43:28 10° NW 21:49:00 42° N 21:49:00 42° N
Cosmos 2322 Rocket 4.4 21:47:19 10° W 21:51:38 22° NW 21:55:59 10° N
USA 215 4.2 22:11:36 41° NNW 22:11:36 41° NNW 22:16:43 10° WNW
USA 281 4.2 22:14:33 41° NW 22:14:33 41° NW 22:18:36 10° NNW
Cosmos 1943 Rocket 4.4 22:18:53 10° NNW 22:20:29 19° NNW 22:20:29 19° NNW
Cosmos 2278 Rocket 4.4 22:27:33 10° NW 22:29:22 20° NW 22:29:22 20° NW
